Lexington Weather

Lexington, Massachusetts, USA

48°F
12/8/2022 3:18pm 
  • Lexington Conditions: Clear
  • Temperature: 47.8°F / 8.8°CColder 1.5°F than last hour.
  • Dew Point: 35.1°FDecreased 0.9°Fsince last hour.
  • Relative Humidity: 61%Increased 1.0% since last hour.
  • Wind: Wind from NE NE 4 mph, 10-min avg: 1 mph, gust: 7 mph
  • Barometer: 30.09 inRising 0.03  inHg/hr Rising Slowly
  • Visibility: 10 miles
  • Rain Today: 0.00 in
  •   

Warning: Undefined variable $rc in /homepages/6/d276339138/htdocs/weather/20190804/ssi/nwsProduct.php on line 323

Warning: Undefined variable $rc in /homepages/6/d276339138/htdocs/weather/20190804/ssi/nwsProduct.php on line 325

Warning: Undefined variable $rc in /homepages/6/d276339138/htdocs/weather/20190804/ssi/nwsProduct.php on line 323

Warning: Undefined variable $rc in /homepages/6/d276339138/htdocs/weather/20190804/ssi/nwsProduct.php on line 325

Warning: Undefined variable $rc in /homepages/6/d276339138/htdocs/weather/20190804/ssi/nwsProduct.php on line 323

Warning: Undefined variable $rc in /homepages/6/d276339138/htdocs/weather/20190804/ssi/nwsProduct.php on line 325

Warning: Undefined variable $rc in /homepages/6/d276339138/htdocs/weather/20190804/ssi/nwsProduct.php on line 323

Warning: Undefined variable $rc in /homepages/6/d276339138/htdocs/weather/20190804/ssi/nwsProduct.php on line 325

Warning: Undefined variable $rc in /homepages/6/d276339138/htdocs/weather/20190804/ssi/nwsProduct.php on line 323

Warning: Undefined variable $rc in /homepages/6/d276339138/htdocs/weather/20190804/ssi/nwsProduct.php on line 325

Warning: Undefined variable $rc in /homepages/6/d276339138/htdocs/weather/20190804/ssi/nwsProduct.php on line 323

Warning: Undefined variable $rc in /homepages/6/d276339138/htdocs/weather/20190804/ssi/nwsProduct.php on line 325

Warning: Undefined variable $rc in /homepages/6/d276339138/htdocs/weather/20190804/ssi/nwsProduct.php on line 323

Warning: Undefined variable $rc in /homepages/6/d276339138/htdocs/weather/20190804/ssi/nwsProduct.php on line 325

Regional Weather Roundup
for Boston, MA

        
000
ASUS41 KBOX 021910
RWRBOX

REGIONAL WEATHER ROUNDUP
NATIONAL WEATHER SERVICE BOSTON/NORTON MA
200 PM EST FRI DEC 02 2022

NOTE:  "FAIR" INDICATES FEW OR NO CLOUDS BELOW 12,000 FEET WITH NO 
SIGNIFICANT WEATHER AND/OR OBSTRUCTIONS TO VISIBILITY.

MAZALL-022000-
EASTERN MASSACHUSETTS
  
CITY           SKY/WX    TMP DP  RH WIND       PRES   REMARKS
BOSTON         PTSUNNY   45  22  40 S8        30.47S                  
BEVERLY        SUNNY     43  23  45 S8        30.46S                  
LAWRENCE       SUNNY     44  22  41 VRB6      30.47S                  
BEDFORD        SUNNY     45  23  42 SW6       30.45S                  
NORWOOD        SUNNY     46  22  38 S8        30.46F                  
MARSHFIELD       N/A     45  23  42 VRB7      30.47F                  
PLYMOUTH       SUNNY     44  25  47 S9        30.47F                  
TAUNTON          N/A    N/A N/A N/A MISG      30.47F                  
NEW BEDFORD    MOSUNNY   44  30  57 S10       30.48F                  
$$

MAZALL-022000-
CAPE COD AND THE ISLANDS
  
CITY           SKY/WX    TMP DP  RH WIND       PRES   REMARKS
FALMOUTH       SUNNY     45  27  49 S9        30.50S                  
HYANNIS        SUNNY     41  27  57 S7        30.49S                  
CHATHAM        SUNNY     44  25  47 VRB7      30.52S                  
PROVINCETOWN   SUNNY     43  26  51 S8        30.50F                  
NANTUCKET      SUNNY     45  31  58 S5        30.51F                  
MARTHAS VNYRD  SUNNY     45  31  58 W7        30.50F                  
$$
 
MAZALL-022000-
CENTRAL AND WESTERN MASSACHUSETTS
  
CITY           SKY/WX    TMP DP  RH WIND       PRES   REMARKS
WORCESTER      SUNNY     43  21  41 S10       30.41F                  
FITCHBURG      SUNNY     44  19  36 S9        30.44S                  
ORANGE         SUNNY     41  24  51 SE8       30.44S                  
SPRINGFIELD    PTSUNNY   42  22  44 SW8       30.43S                  
WESTFIELD      MOSUNNY   43  23  45 S8        30.44F                  
NORTH ADAMS    MOSUNNY   42  22  44 S5        30.39F                  
PITTSFIELD     MOSUNNY   38  21  50 S9        30.37F WCI  31          
$$
 
RIZALL-022000-
RHODE ISLAND
  
CITY           SKY/WX    TMP DP  RH WIND       PRES   REMARKS
PROVIDENCE     PTSUNNY   44  29  55 S13       30.48F                  
NEWPORT        SUNNY     42  28  57 S9        30.48F                  
BLOCK ISLAND   SUNNY     43  27  53 SW15      30.51F                  
SMITHFIELD     SUNNY     43  23  45 VRB6      30.46F                  
WESTERLY       SUNNY     43  27  53 SW8       30.50F                  
$$
 
CTZALL-022000-
CONNECTICUT
  
CITY           SKY/WX    TMP DP  RH WIND       PRES   REMARKS
BRADLEY INTL   PTSUNNY   44  23  43 S9        30.45F                  
HARTFORD       MOSUNNY   45  23  42 SW7       30.47F                  
BRIDGEPORT     SUNNY     42  29  59 S6        30.49F                  
DANBURY        SUNNY     44  24  45 SW9       30.46F                  
GROTON         SUNNY     44  28  53 SW7       30.50F                  
NEW HAVEN      SUNNY     44  30  57 VRB3      30.48F                  
CHESTER        FAIR      43  25  49 VRB6      30.47F                  
MERIDEN        SUNNY     42  22  44 SW8       30.48F                  
WILLIMANTIC    SUNNY     44  22  41 S8        30.46F                  
OXFORD         SUNNY     41  25  53 S8        30.45F                  
$$

MEZ002-015-021-024-NHZ003-005-008-011-012-014-VTZ005-008-022000-
NORTHERN NEW ENGLAND
  
CITY           SKY/WX    TMP DP  RH WIND       PRES   REMARKS
PORTLAND ME    MOSUNNY   39  23  52 S10       30.48R                  
BANGOR ME      MOSUNNY   35  15  44 W6        30.46F WCI  30          
CONCORD NH     SUNNY     42  21  43 SW3       30.43F                  
MANCHESTER NH  MOSUNNY   43  22  43 S7        30.43S                  
NASHUA NH      SUNNY     44  23  43 VRB5      30.45S                  
PORTSMOUTH NH  PTSUNNY   43  21  41 S5        30.45S                  
JAFFREY NH     SUNNY     41  21  44 SW6       30.40S                  
KEENE NH       SUNNY     42  22  44 SW9         N/A                   
BURLINGTON VT  PTSUNNY   40  25  55 S14       30.37S                  
MT. WASHINGTON PTSUNNY   19   3  49 SW26        N/A  WCI   1          
$$

NYZ052-076-022000-
EASTERN NEW YORK
  
CITY           SKY/WX    TMP DP  RH WIND       PRES   REMARKS
ALBANY         PTSUNNY   41  22  46 S15       30.40F                  
NEW YORK CITY  MOSUNNY   43  19  38 S7        30.48F                  
$$
 
ANZALL-022000-
MARINE OBSERVATIONS
  
STATION/POSITION TIME  TEMP    WIND        PRES    VSBY  WAVE
                       AIR SEA DIR/SP/G                  HT/PER
                 (UTC) (F)     (DEG/KT/KT) (MB)    (MI)  (FT/S)
BOSTON BUOY      1850      51  140/  6/  8 1032.6F         1/11
BUZZARDS BAY     1800   42     190/  9/ 10 1033.4F
NANTUCKET SOUND  1850   43     200/  8/ 10 1033.0F
MASS BAY-STELLWA 1704   40 50  230/  6/ 10 1032.9F  1 7/8  2/11
ISLE OF SHOALS   1800   39     200/  5/  5 1031.2F
S OF BLOCK IS    1826      55                N/A           2/ 8
$$

......................KEY.........................
  SKY/WX - SKY CONDITION/PRESENT WEATHER
  TMP    - TEMPERATURE IN FAHRENHEIT
  DWPT   - DEWPOINT IN FAHRENHEIT
  RH     - RELATIVE HUMIDITY IN PERCENT
  WIND   - DIRECTION AND SPEED IN MPH
  PRES   - MEAN SEA LEVEL PRESSURE IN INCHES OF HG
  WCI    - WIND CHILL INDEX
  VSB    - VISIBILITY IN MILES
  HX     - HEAT INDEX
  TC     - TEMPERATURE IN CELSIUS
  VRB    - VARIABLE WIND DIRECTION
  N/A    - NOT AVAILABLE
  
      

Other recent Regional Weather Roundups

Thu Dec 8, 2:10pm

Thu Dec 8, 1:10pm

Thu Dec 8, 12:10pm

Thu Dec 8, 11:10am

Thu Dec 8, 10:10am

Thu Dec 8, 9:10am

Thu Dec 8, 8:10am

Thu Dec 8, 7:10am

Thu Dec 8, 6:10am

Thu Dec 8, 5:10am

Thu Dec 8, 4:10am

Thu Dec 8, 3:10am

Thu Dec 8, 2:10am

Thu Dec 8, 1:10am

Thu Dec 8, 12:10am

Wed Dec 7, 11:10pm

Wed Dec 7, 10:10pm

Wed Dec 7, 9:10pm

Wed Dec 7, 8:10pm

Wed Dec 7, 7:10pm

Wed Dec 7, 6:10pm

Wed Dec 7, 5:10pm

Wed Dec 7, 4:10pm

Wed Dec 7, 3:10pm

Wed Dec 7, 2:10pm

Wed Dec 7, 1:10pm

Wed Dec 7, 12:10pm

Wed Dec 7, 11:10am

Wed Dec 7, 10:10am

Wed Dec 7, 9:10am

Wed Dec 7, 8:10am

Wed Dec 7, 7:10am

Wed Dec 7, 6:10am

Wed Dec 7, 5:10am

Wed Dec 7, 4:10am

Wed Dec 7, 3:10am

Wed Dec 7, 2:10am

Wed Dec 7, 1:10am

Wed Dec 7, 12:10am

Tue Dec 6, 11:10pm

Tue Dec 6, 10:10pm

Tue Dec 6, 9:10pm

Tue Dec 6, 8:10pm

Tue Dec 6, 7:10pm

Tue Dec 6, 6:10pm

Tue Dec 6, 5:10pm

Tue Dec 6, 4:10pm

Tue Dec 6, 3:10pm

Tue Dec 6, 2:10pm

Tue Dec 6, 1:10pm

Tue Dec 6, 12:10pm

Tue Dec 6, 11:10am

Tue Dec 6, 10:10am

Tue Dec 6, 9:10am

Tue Dec 6, 8:10am

Tue Dec 6, 7:10am

Tue Dec 6, 6:10am

Tue Dec 6, 5:10am

Tue Dec 6, 4:10am

Tue Dec 6, 3:10am

Tue Dec 6, 2:10am

Tue Dec 6, 1:10am

Tue Dec 6, 12:10am

Mon Dec 5, 11:10pm

Mon Dec 5, 10:10pm

Mon Dec 5, 9:10pm

Mon Dec 5, 8:10pm

Mon Dec 5, 7:10pm

Mon Dec 5, 6:10pm

Mon Dec 5, 5:10pm

Mon Dec 5, 4:10pm

Mon Dec 5, 3:10pm

Mon Dec 5, 2:10pm

Mon Dec 5, 1:10pm

Mon Dec 5, 12:10pm

Mon Dec 5, 11:10am

Mon Dec 5, 10:10am

Mon Dec 5, 9:10am

Mon Dec 5, 8:10am

Mon Dec 5, 7:10am

Mon Dec 5, 6:10am

Mon Dec 5, 5:10am

Mon Dec 5, 4:10am

Mon Dec 5, 3:10am

Mon Dec 5, 2:10am

Mon Dec 5, 1:10am

Mon Dec 5, 12:10am

Sun Dec 4, 11:10pm

Sun Dec 4, 10:10pm

Sun Dec 4, 9:10pm

Sun Dec 4, 8:10pm

Sun Dec 4, 7:10pm

Sun Dec 4, 6:10pm

Sun Dec 4, 5:10pm

Sun Dec 4, 4:10pm

Sun Dec 4, 3:10pm

Sun Dec 4, 2:10pm

Sun Dec 4, 1:10pm

Sun Dec 4, 12:10pm

Sun Dec 4, 11:10am

Sun Dec 4, 10:10am

Sun Dec 4, 9:10am

Sun Dec 4, 8:10am

Sun Dec 4, 7:10am

Sun Dec 4, 6:10am

Sun Dec 4, 5:10am

Sun Dec 4, 4:10am

Sun Dec 4, 3:10am

Sun Dec 4, 2:10am

Sun Dec 4, 1:10am

Sun Dec 4, 12:10am

Sat Dec 3, 11:10pm

Sat Dec 3, 10:10pm

Sat Dec 3, 9:10pm

Sat Dec 3, 8:10pm

Sat Dec 3, 7:10pm

Sat Dec 3, 6:10pm

Sat Dec 3, 5:10pm

Sat Dec 3, 4:10pm

Sat Dec 3, 3:10pm

Sat Dec 3, 2:10pm

Sat Dec 3, 1:10pm

Sat Dec 3, 12:10pm

Sat Dec 3, 11:10am

Sat Dec 3, 10:10am

Sat Dec 3, 9:10am

Sat Dec 3, 8:10am

Sat Dec 3, 7:10am

Sat Dec 3, 6:10am

Sat Dec 3, 5:10am

Sat Dec 3, 4:10am

Sat Dec 3, 3:10am

Sat Dec 3, 2:10am

Sat Dec 3, 1:10am

Sat Dec 3, 12:10am

Fri Dec 2, 11:10pm

Fri Dec 2, 10:10pm

Fri Dec 2, 9:10pm

Fri Dec 2, 8:10pm

Fri Dec 2, 7:10pm

Fri Dec 2, 6:10pm

Fri Dec 2, 5:10pm

Fri Dec 2, 4:10pm

Fri Dec 2, 3:10pm

Fri Dec 2, 1:10pm

Fri Dec 2, 12:10pm

Fri Dec 2, 11:10am

Fri Dec 2, 10:10am

Fri Dec 2, 9:10am

Fri Dec 2, 8:10am

Fri Dec 2, 7:10am

Fri Dec 2, 6:10am

Fri Dec 2, 5:10am

Fri Dec 2, 4:10am

Fri Dec 2, 3:10am

Fri Dec 2, 2:10am

Fri Dec 2, 1:10am

Fri Dec 2, 12:10am

Thu Dec 1, 11:10pm

Thu Dec 1, 10:10pm

Thu Dec 1, 9:10pm

Thu Dec 1, 8:10pm

Thu Dec 1, 7:10pm

Thu Dec 1, 6:10pm

Thu Dec 1, 5:10pm

Thu Dec 1, 4:10pm

Thu Dec 1, 3:10pm

Meta data:

ID: abbe307d-2c1f-4489-bd16-a54c96d68e9b
Link: https://api.weather.gov/products/abbe307d-2c1f-4489-bd16-a54c96d68e9b